Delaware, OH

7:47 PM EDT on July 27, 2017 (GMT -0400)
Delaware Municipal

Weather History for KDLZ - January, 2013

Change the Weather History Date:

Wednesday, January 30, 2013

  Actual Average Record
Temperature  
Mean Temperature 55 °F -  
Max Temperature 60 °F 34 °F 65 °F (1975)
Min Temperature 50 °F 18 °F -11 °F (1977)
Degree Days  
Heating Degree Days 10    
Growing Degree Days 5 (Base 50)    
Moisture  
Dew Point 50 °F    
Average Humidity 84    
Maximum Humidity 100    
Minimum Humidity 76    
Precipitation  
Precipitation 0.43 in - - ()
Sea Level Pressure  
Sea Level Pressure 29.41 in    
Wind  
Wind Speed 16 mph (South)    
Max Wind Speed 23 mph    
Max Gust Speed 30 mph    
Visibility 10 miles    
Events Rain    
Averages and records for this station are not official NWS values.
T = Trace of Precipitation, MM = Missing Value Source: NWS Daily Summary

Daily Weather History Graph

Daily Weather History Graph

Search for Another Location

Airport or City:

Trip Planner

Search our weather history database for the weather conditions in past years. The results will help you decide how hot, cold, wet, or windy it might be!

Date:

Astronomy

Jan. 30, 2013 Rise Set
Actual Time 7:43 AM EST 5:48 PM EST
Civil Twilight 7:14 AM EST 6:17 PM EST
Nautical Twilight 6:41 AM EST 6:50 PM EST
Astronomical Twilight 6:09 AM EST 7:22 PM EST
Moon 9:47 PM EST (1/30) 9:09 AM EST (1/30)
Length of Visible Light 11h 03m
Length of Day
10h 05m
Waning Gibbous, 88% of the Moon is Illuminated
Jan 30
Waning Gibbous
Feb 3
Last Quarter
Feb 10
New
Feb 17
First Quarter
Feb 25
Full

Hourly Weather History & Observations

Time (EST) Temp. Dew Point Humidity Pressure Visibility Wind Dir Wind Speed Gust Speed Precip Events Conditions
12:03 AM 59.0 °F 53.6 °F 82% 29.63 in 10.0 mi South 16.1 mph 20.7 mph N/A   Scattered Clouds
12:24 AM 60.8 °F 53.6 °F 77% 29.62 in 10.0 mi South 17.3 mph 26.5 mph N/A   Clear
12:44 AM 60.8 °F 53.6 °F 77% 29.61 in 10.0 mi South 13.8 mph 23.0 mph N/A   Clear
1:03 AM 59.0 °F 53.6 °F 82% 29.59 in 10.0 mi South 16.1 mph - N/A   Clear
1:24 AM 59.0 °F 53.6 °F 82% 29.58 in 10.0 mi South 15.0 mph 23.0 mph N/A   Clear
1:44 AM 59.0 °F 53.6 °F 82% 29.57 in 10.0 mi South 15.0 mph 21.9 mph N/A   Clear
2:03 AM 59.0 °F 51.8 °F 77% 29.56 in 10.0 mi South 15.0 mph 19.6 mph N/A   Clear
2:24 AM 59.0 °F 53.6 °F 82% 29.54 in 10.0 mi South 16.1 mph 25.3 mph N/A   Clear
2:43 AM 59.0 °F 51.8 °F 77% 29.53 in 10.0 mi South 16.1 mph 23.0 mph N/A   Clear
3:04 AM 59.0 °F 51.8 °F 77% 29.51 in 10.0 mi South 18.4 mph 26.5 mph N/A   Clear
3:24 AM 59.0 °F 51.8 °F 77% 29.50 in 10.0 mi South 18.4 mph 24.2 mph N/A   Clear
3:43 AM 59.0 °F 51.8 °F 77% 29.48 in 10.0 mi South 16.1 mph 21.9 mph N/A   Clear
4:04 AM 59.0 °F 51.8 °F 77% 29.46 in 10.0 mi South 18.4 mph 25.3 mph N/A   Clear
4:23 AM 59.0 °F 51.8 °F 77% 29.46 in 10.0 mi South 16.1 mph - N/A   Mostly Cloudy
4:43 AM 59.0 °F 51.8 °F 77% 29.44 in 10.0 mi South 16.1 mph 25.3 mph N/A   Overcast
5:04 AM 59.0 °F 51.8 °F 77% 29.43 in 10.0 mi South 16.1 mph 26.5 mph N/A   Overcast
5:23 AM 59.0 °F 51.8 °F 77% 29.42 in 10.0 mi South 13.8 mph 20.7 mph N/A   Overcast
5:43 AM 59.0 °F 51.8 °F 77% 29.40 in 10.0 mi South 15.0 mph 21.9 mph N/A   Overcast
6:04 AM 59.0 °F 51.8 °F 77% 29.38 in 10.0 mi SSE 17.3 mph 21.9 mph N/A   Overcast
6:23 AM 59.0 °F 51.8 °F 77% 29.36 in 10.0 mi SSE 18.4 mph 23.0 mph N/A   Overcast
6:44 AM 59.0 °F 51.8 °F 77% 29.34 in 10.0 mi South 19.6 mph 29.9 mph N/A   Light Drizzle
7:04 AM 59.0 °F 51.8 °F 77% 29.32 in 10.0 mi SSE 19.6 mph 27.6 mph N/A   Light Drizzle
7:23 AM 55.4 °F 51.8 °F 88% 29.43 in 1.5 mi WNW 19.6 mph 27.6 mph 0.21 in Rain Heavy Rain
7:44 AM 53.6 °F 51.8 °F 94% 29.47 in 7.0 mi WNW 18.4 mph 21.9 mph 0.25 in Rain Rain
8:23 AM 51.8 °F 50.0 °F 94% 29.45 in 10.0 mi Calm Calm - 0.03 in Rain Rain
8:44 AM 51.8 °F 50.0 °F 94% 29.46 in 10.0 mi SSE 8.1 mph - 0.06 in Rain Rain
9:04 AM 51.8 °F 50.0 °F 94% 29.47 in 10.0 mi SSE 10.4 mph - 0.01 in Rain Rain
9:23 AM 50.0 °F 50.0 °F 100% 29.46 in 7.0 mi SSE 6.9 mph - 0.04 in Rain Rain
9:44 AM 51.8 °F 50.0 °F 94% 29.42 in 10.0 mi SE 10.4 mph - 0.05 in Rain Light Rain
10:04 AM 51.8 °F 50.0 °F 94% 29.45 in 10.0 mi South 12.7 mph - N/A   Unknown
10:24 AM 51.8 °F 50.0 °F 94% 29.44 in 10.0 mi South 13.8 mph 19.6 mph N/A   Light Drizzle
10:43 AM 51.8 °F 50.0 °F 94% 29.43 in 10.0 mi South 17.3 mph - N/A   Overcast
11:04 AM 53.6 °F 50.0 °F 88% 29.40 in 10.0 mi South 15.0 mph 20.7 mph N/A   Overcast
11:24 AM 53.6 °F 50.0 °F 88% 29.39 in 10.0 mi SSE 16.1 mph 25.3 mph N/A   Overcast
11:43 AM 53.6 °F 50.0 °F 88% 29.35 in 10.0 mi SSE 23.0 mph 28.8 mph N/A   Mostly Cloudy
12:04 PM 53.6 °F 50.0 °F 88% 29.38 in 10.0 mi South 12.7 mph 24.2 mph N/A   Overcast
12:24 PM 53.6 °F 50.0 °F 88% 29.38 in 10.0 mi South 11.5 mph 17.3 mph N/A   Overcast
12:43 PM 53.6 °F 48.2 °F 82% 29.36 in 10.0 mi South 15.0 mph 20.7 mph N/A   Overcast
1:04 PM 53.6 °F 48.2 °F 82% 29.38 in 10.0 mi South 16.1 mph 21.9 mph N/A   Overcast
1:24 PM 53.6 °F 48.2 °F 82% 29.39 in 10.0 mi SSW 16.1 mph 23.0 mph N/A   Scattered Clouds
1:43 PM 53.6 °F 48.2 °F 82% 29.36 in 10.0 mi South 16.1 mph 21.9 mph N/A   Mostly Cloudy
2:04 PM 53.6 °F 50.0 °F 88% 29.36 in 10.0 mi SSW 16.1 mph 25.3 mph N/A   Mostly Cloudy
2:23 PM 53.6 °F 50.0 °F 88% 29.36 in 10.0 mi SSW 17.3 mph 26.5 mph N/A   Overcast
2:44 PM 53.6 °F 50.0 °F 88% 29.35 in 10.0 mi SSW 17.3 mph 28.8 mph N/A   Overcast
3:04 PM 53.6 °F 50.0 °F 88% 29.32 in 10.0 mi South 16.1 mph 24.2 mph N/A   Overcast
3:23 PM 53.6 °F 48.2 °F 82% 29.32 in 10.0 mi SSW 15.0 mph 23.0 mph N/A   Overcast
3:44 PM 53.6 °F 48.2 °F 82% 29.31 in 10.0 mi South 18.4 mph 23.0 mph N/A   Overcast
4:04 PM 53.6 °F 48.2 °F 82% 29.34 in 10.0 mi South 16.1 mph 20.7 mph N/A   Overcast
4:23 PM 53.6 °F 48.2 °F 82% 29.31 in 10.0 mi SSW 13.8 mph 20.7 mph N/A   Overcast
4:44 PM 53.6 °F 48.2 °F 82% 29.30 in 10.0 mi SW 17.3 mph 27.6 mph N/A   Overcast
5:04 PM 53.6 °F 46.4 °F 77% 29.29 in 10.0 mi SSW 19.6 mph 28.8 mph N/A   Overcast
5:23 PM 53.6 °F 48.2 °F 82% 29.29 in 10.0 mi SW 11.5 mph - N/A   Overcast
5:44 PM 51.8 °F 50.0 °F 94% 29.29 in 4.0 mi SW 20.7 mph 25.3 mph 0.07 in Rain Heavy Rain
6:04 PM 51.8 °F 46.4 °F 82% 29.27 in 10.0 mi SSW 18.4 mph 25.3 mph N/A   Light Drizzle
6:24 PM 51.8 °F 46.4 °F 82% 29.27 in 10.0 mi SSW 15.0 mph 26.5 mph N/A   Mostly Cloudy
6:44 PM 51.8 °F 44.6 °F 76% 29.27 in 10.0 mi SSW 18.4 mph 26.5 mph N/A   Scattered Clouds
7:03 PM 51.8 °F 46.4 °F 82% 29.26 in 10.0 mi SSW 17.3 mph 23.0 mph N/A   Scattered Clouds